When you browse on this site, cookies collect data to enhance your experience and personalize the content and advertising you see.
Visit our Privacy Policy to learn more. By continuing to use the site, you agree to this use of cookies and data.

Météo par heure à Fier

Ce jour, 4 Juillet, Samedi

Heure Température Précipitation Vent Pression Humidité
00:00 +26°C° 0 mm 1 m/s 757 mmHg 73%
01:00 +26°C° 0 mm 1 m/s 757 mmHg 70%
02:00 +26°C° 0 mm 1 m/s 757 mmHg 69%
03:00 +25°C° 0 mm 1 m/s 757 mmHg 68%
04:00 +25°C° 0 mm 1 m/s 756 mmHg 67%
05:00 +27°C° 0 mm 1 m/s 757 mmHg 62%
06:00 +28°C° 0 mm 1 m/s 757 mmHg 58%
07:00 +30°C° 0 mm 1 m/s 757 mmHg 53%
08:00 +32°C° 0 mm 2 m/s 757 mmHg 49%
09:00 +34°C° 0 mm 2 m/s 757 mmHg 45%
10:00 +35°C° 0 mm 3 m/s 757 mmHg 42%
11:00 +36°C° 0 mm 3 m/s 757 mmHg 42%
12:00 +36°C° 0 mm 4 m/s 757 mmHg 41%
13:00 +36°C° 0 mm 4 m/s 757 mmHg 41%
14:00 +36°C° 0 mm 5 m/s 756 mmHg 44%
15:00 +35°C° 0 mm 5 m/s 756 mmHg 46%
16:00 +34°C° 0 mm 5 m/s 756 mmHg 49%
17:00 +32°C° 0 mm 4 m/s 756 mmHg 56%
18:00 +30°C° 0 mm 4 m/s 756 mmHg 64%
19:00 +28°C° 0 mm 4 m/s 757 mmHg 71%
20:00 +27°C° 0.1 mm 3 m/s 757 mmHg 76%
21:00 +26°C° 0.1 mm 3 m/s 757 mmHg 81%
22:00 +25°C° 0.1 mm 3 m/s 757 mmHg 86%
23:00 +25°C° 0 mm 2 m/s 757 mmHg 86%

Demain, 5 Juillet, Dimanche

Heure Température Précipitation Vent Pression Humidité
00:00 +25°C° 0 mm 2 m/s 757 mmHg 87%
01:00 +25°C° 0 mm 2 m/s 757 mmHg 87%
02:00 +24°C° 0 mm 2 m/s 757 mmHg 86%
03:00 +24°C° 0 mm 2 m/s 756 mmHg 85%
04:00 +23°C° 0 mm 2 m/s 756 mmHg 84%
05:00 +25°C° 0 mm 1 m/s 756 mmHg 77%
06:00 +26°C° 0 mm 1 m/s 756 mmHg 70%
07:00 +28°C° 0 mm 1 m/s 756 mmHg 63%
08:00 +30°C° 0 mm 2 m/s 756 mmHg 56%
09:00 +31°C° 0 mm 2 m/s 756 mmHg 48%
10:00 +34°C° 0 mm 3 m/s 756 mmHg 40%
11:00 +35°C° 0 mm 4 m/s 756 mmHg 39%
12:00 +35°C° 0 mm 5 m/s 756 mmHg 38%
13:00 +36°C° 0 mm 6 m/s 755 mmHg 37%
14:00 +35°C° 0 mm 6 m/s 755 mmHg 40%
15:00 +35°C° 0 mm 6 m/s 755 mmHg 43%
16:00 +34°C° 0 mm 7 m/s 755 mmHg 45%
17:00 +32°C° 0.1 mm 6 m/s 755 mmHg 52%
18:00 +30°C° 0.1 mm 5 m/s 755 mmHg 58%
19:00 +28°C° 0.1 mm 4 m/s 755 mmHg 65%
20:00 +27°C° 0 mm 4 m/s 755 mmHg 65%
21:00 +27°C° 0 mm 3 m/s 755 mmHg 65%
22:00 +26°C° 0 mm 3 m/s 756 mmHg 65%
23:00 +26°C° 0 mm 3 m/s 755 mmHg 63%

Après-demain, 6 Juillet, Lundi

Heure Température Précipitation Vent Pression Humidité
00:00 +26°C° 0 mm 3 m/s 755 mmHg 61%
01:00 +26°C° 0 mm 3 m/s 755 mmHg 59%
02:00 +26°C° 0 mm 2 m/s 754 mmHg 60%
03:00 +26°C° 0 mm 2 m/s 754 mmHg 61%
04:00 +26°C° 0 mm 2 m/s 754 mmHg 61%
05:00 +26°C° 0 mm 2 m/s 754 mmHg 61%
06:00 +27°C° 0 mm 2 m/s 754 mmHg 60%
07:00 +28°C° 0 mm 2 m/s 754 mmHg 59%
08:00 +28°C° 0 mm 2 m/s 754 mmHg 55%
09:00 +29°C° 0 mm 2 m/s 753 mmHg 52%
10:00 +30°C° 0 mm 2 m/s 753 mmHg 49%
11:00 +31°C° 0 mm 2 m/s 753 mmHg 44%
12:00 +34°C° 0 mm 3 m/s 753 mmHg 40%
13:00 +35°C° 0 mm 3 m/s 753 mmHg 35%
14:00 +34°C° 0 mm 4 m/s 752 mmHg 38%
15:00 +34°C° 0 mm 5 m/s 752 mmHg 42%
16:00 +33°C° 0 mm 6 m/s 752 mmHg 45%
17:00 +32°C° 0 mm 5 m/s 752 mmHg 51%
18:00 +29°C° 0 mm 4 m/s 752 mmHg 58%
19:00 +27°C° 0 mm 3 m/s 752 mmHg 64%
20:00 +27°C° 0.1 mm 3 m/s 752 mmHg 66%
21:00 +26°C° 0.1 mm 2 m/s 752 mmHg 67%
22:00 +25°C° 0.1 mm 1 m/s 752 mmHg 68%
23:00 +25°C° 0 mm 1 m/s 752 mmHg 69%

7 Juillet, Mardi

Heure Température Précipitation Vent Pression Humidité
00:00 +25°C° 0 mm 1 m/s 752 mmHg 70%
01:00 +24°C° 0 mm 1 m/s 752 mmHg 71%
02:00 +24°C° 0 mm 1 m/s 752 mmHg 71%
03:00 +24°C° 0 mm 1 m/s 752 mmHg 71%
04:00 +23°C° 0 mm 2 m/s 751 mmHg 71%
05:00 +25°C° 0 mm 1 m/s 752 mmHg 66%
06:00 +27°C° 0 mm 1 m/s 752 mmHg 61%
07:00 +28°C° 0 mm 1 m/s 752 mmHg 56%
08:00 +30°C° 0 mm 2 m/s 752 mmHg 52%
09:00 +31°C° 0 mm 3 m/s 752 mmHg 48%
10:00 +34°C° 0 mm 4 m/s 752 mmHg 44%
11:00 +34°C° 0 mm 4 m/s 752 mmHg 45%
12:00 +35°C° 0 mm 5 m/s 752 mmHg 45%
13:00 +35°C° 0 mm 5 m/s 752 mmHg 45%
14:00 +34°C° 0 mm 5 m/s 752 mmHg 48%
15:00 +34°C° 0 mm 6 m/s 752 mmHg 50%
16:00 +33°C° 0 mm 6 m/s 753 mmHg 53%
17:00 +32°C° 0.2 mm 6 m/s 753 mmHg 59%
18:00 +29°C° 0.2 mm 5 m/s 754 mmHg 65%
19:00 +28°C° 0.2 mm 5 m/s 754 mmHg 72%
20:00 +27°C° 0 mm 5 m/s 755 mmHg 74%
21:00 +26°C° 0 mm 4 m/s 755 mmHg 76%
22:00 +26°C° 0 mm 4 m/s 756 mmHg 78%
23:00 +25°C° 0 mm 3 m/s 756 mmHg 78%

8 Juillet, Mercredi

Heure Température Précipitation Vent Pression Humidité
00:00 +25°C° 0 mm 3 m/s 756 mmHg 79%
01:00 +24°C° 0 mm 3 m/s 756 mmHg 80%
02:00 +24°C° 0 mm 3 m/s 756 mmHg 80%
03:00 +22°C° 0 mm 3 m/s 756 mmHg 81%
04:00 +22°C° 0 mm 3 m/s 756 mmHg 81%
05:00 +24°C° 0 mm 3 m/s 757 mmHg 75%
06:00 +25°C° 0 mm 3 m/s 757 mmHg 68%
07:00 +26°C° 0 mm 3 m/s 758 mmHg 62%
08:00 +28°C° 0 mm 4 m/s 758 mmHg 56%
09:00 +29°C° 0 mm 4 m/s 758 mmHg 51%
10:00 +32°C° 0 mm 5 m/s 758 mmHg 45%
11:00 +33°C° 0 mm 5 m/s 758 mmHg 44%
12:00 +33°C° 0 mm 6 m/s 758 mmHg 42%
13:00 +34°C° 0 mm 6 m/s 758 mmHg 40%
14:00 +33°C° 0 mm 7 m/s 758 mmHg 41%
15:00 +33°C° 0 mm 7 m/s 758 mmHg 42%
16:00 +32°C° 0 mm 7 m/s 758 mmHg 42%
17:00 +29°C° 0 mm 6 m/s 758 mmHg 48%
18:00 +28°C° 0 mm 6 m/s 758 mmHg 54%
19:00 +26°C° 0 mm 5 m/s 759 mmHg 60%
20:00 +26°C° 0 mm 4 m/s 759 mmHg 62%
21:00 +25°C° 0 mm 4 m/s 759 mmHg 63%
22:00 +23°C° 0 mm 4 m/s 760 mmHg 65%
23:00 +24°C° 0 mm 3 m/s 760 mmHg 64%

9 Juillet, Jeudi

Heure Température Précipitation Vent Pression Humidité
00:00 +24°C° 0 mm 3 m/s 760 mmHg 63%
01:00 +23°C° 0 mm 2 m/s 760 mmHg 61%
02:00 +23°C° 0 mm 2 m/s 760 mmHg 60%
03:00 +23°C° 0 mm 2 m/s 760 mmHg 59%
04:00 +22°C° 0 mm 3 m/s 760 mmHg 58%
05:00 +24°C° 0 mm 2 m/s 760 mmHg 54%
06:00 +26°C° 0 mm 2 m/s 760 mmHg 50%
07:00 +28°C° 0 mm 2 m/s 760 mmHg 46%
08:00 +29°C° 0 mm 2 m/s 760 mmHg 45%
09:00 +31°C° 0 mm 2 m/s 760 mmHg 43%
10:00 +33°C° 0 mm 1 m/s 760 mmHg 42%
11:00 +34°C° 0 mm 2 m/s 760 mmHg 43%
12:00 +34°C° 0 mm 3 m/s 760 mmHg 44%
13:00 +34°C° 0 mm 4 m/s 760 mmHg 45%
14:00 +34°C° 0 mm 4 m/s 760 mmHg 48%
15:00 +33°C° 0 mm 4 m/s 759 mmHg 50%
16:00 +32°C° 0 mm 4 m/s 759 mmHg 52%
17:00 +30°C° 0 mm 3 m/s 759 mmHg 56%
18:00 +29°C° 0 mm 2 m/s 759 mmHg 60%
19:00 +27°C° 0 mm 2 m/s 759 mmHg 64%
20:00 +26°C° 0 mm 2 m/s 759 mmHg 67%
21:00 +26°C° 0 mm 2 m/s 759 mmHg 69%
22:00 +25°C° 0 mm 1 m/s 760 mmHg 71%
23:00 +25°C° 0 mm 1 m/s 759 mmHg 71%
Voir plus